Tracking 31027 objects as of 19-Jul-2025
HD Live streaming from Space Station
objects crossing your sky now

STARLINK-32504

Track STARLINK-32504 now!
10-day predictions
STARLINK-32504 is classified as:


NORAD ID: 62024
Int'l Code: 2024-213S
Perigee: 481.3 km
Apogee: 483.3 km
Inclination: 53.2 °
Period: 94.1 minutes
Semi major axis: 6853 km
RCS: Unknown
Launch date: November 18, 2024
Source: United States (US)
Launch site: AIR FORCE WESTERN TEST RANGE (AFWTR)
Your satellite tracking list
Your tracking list is empty




NASA's NSSDC Master Catalog

Two Line Element Set (TLE):
1 62024U 24213S   25199.64921996  .00012727  00000-0  44086-3 0  9992
2 62024  53.1586 175.1193 0001476  81.9923 278.1245 15.30216098 38534
Source of the keplerian elements: AFSPC